TimeEDT,TemperatureF,Dew PointF,Humidity,Sea Level PressureIn,VisibilityMPH,Wind Direction,Wind SpeedMPH,Gust SpeedMPH,PrecipitationIn,Events,Conditions,WindDirDegrees,DateUTC
12:56 AM,66.0,64.0,93,29.98,9.0,Calm,Calm,-,N/A,,Clear,0,2013-05-21 04:56:00
1:56 AM,64.9,63.0,93,29.96,7.0,Calm,Calm,-,N/A,,Clear,0,2013-05-21 05:56:00
2:56 AM,64.0,63.0,96,29.95,6.0,Calm,Calm,-,N/A,,Clear,0,2013-05-21 06:56:00
3:56 AM,63.0,61.0,93,29.94,4.0,Calm,Calm,-,N/A,,Clear,0,2013-05-21 07:56:00
4:26 AM,62.6,62.6,100,29.93,3.0,Calm,Calm,-,N/A,,Scattered Clouds,0,2013-05-21 08:26:00
4:56 AM,62.1,62.1,100,29.96,1.2,Calm,Calm,-,N/A,,Partly Cloudy,0,2013-05-21 08:56:00
5:04 AM,62.6,60.8,94,29.95,1.0,Calm,Calm,-,N/A,,Mist,0,2013-05-21 09:04:00
5:14 AM,62.6,62.6,100,29.96,0.5,Calm,Calm,-,N/A,Fog,Fog,0,2013-05-21 09:14:00
5:24 AM,62.6,62.6,100,29.96,0.5,Calm,Calm,-,N/A,Fog,Fog,0,2013-05-21 09:24:00
5:30 AM,62.6,62.6,100,29.97,1.5,Calm,Calm,-,N/A,,Overcast,0,2013-05-21 09:30:00
5:35 AM,62.6,62.6,100,29.97,3.0,Calm,Calm,-,N/A,,Overcast,0,2013-05-21 09:35:00
5:56 AM,64.0,63.0,96,29.97,3.0,Calm,Calm,-,N/A,,Overcast,0,2013-05-21 09:56:00
6:23 AM,64.4,62.6,94,29.99,3.0,Calm,Calm,-,N/A,,Scattered Clouds,0,2013-05-21 10:23:00
6:56 AM,66.0,64.9,96,29.98,4.0,Calm,Calm,-,N/A,,Partly Cloudy,0,2013-05-21 10:56:00
7:56 AM,70.0,66.9,90,29.97,4.0,Calm,Calm,-,N/A,,Clear,0,2013-05-21 11:56:00
8:27 AM,71.6,66.2,83,29.98,5.0,Calm,Calm,-,N/A,,Partly Cloudy,0,2013-05-21 12:27:00
8:56 AM,72.0,66.9,84,29.98,7.0,Calm,Calm,-,N/A,,Clear,0,2013-05-21 12:56:00
9:56 AM,75.0,68.0,79,29.96,9.0,East,4.6,-,N/A,,Clear,90,2013-05-21 13:56:00
10:56 AM,77.0,69.1,76,29.95,10.0,Variable,4.6,-,N/A,,Clear,0,2013-05-21 14:56:00
11:56 AM,81.0,71.1,72,29.94,10.0,Variable,6.9,-,N/A,,Partly Cloudy,0,2013-05-21 15:56:00
12:56 PM,82.9,68.0,60,29.94,10.0,West,6.9,-,N/A,,Partly Cloudy,280,2013-05-21 16:56:00
1:56 PM,84.9,66.9,55,29.91,10.0,WSW,3.5,-,N/A,,Clear,240,2013-05-21 17:56:00
2:56 PM,84.9,68.0,57,29.89,10.0,Variable,4.6,-,N/A,,Scattered Clouds,0,2013-05-21 18:56:00
3:56 PM,87.1,68.0,53,29.87,10.0,South,10.4,-,N/A,,Partly Cloudy,190,2013-05-21 19:56:00
4:56 PM,86.0,66.0,51,29.86,10.0,South,9.2,-,N/A,,Clear,190,2013-05-21 20:56:00
5:56 PM,86.0,66.9,53,29.85,10.0,SW,10.4,-,N/A,,Clear,220,2013-05-21 21:56:00
6:56 PM,84.0,66.9,56,29.84,10.0,South,10.4,-,N/A,,Clear,190,2013-05-21 22:56:00
7:56 PM,82.0,68.0,62,29.84,10.0,SSW,8.1,17.3,N/A,,Clear,200,2013-05-21 23:56:00
8:56 PM,79.0,68.0,69,29.85,10.0,SSW,9.2,-,N/A,,Clear,200,2013-05-22 00:56:00
9:56 PM,78.1,68.0,71,29.86,10.0,SSW,6.9,-,N/A,,Clear,200,2013-05-22 01:56:00
10:56 PM,77.0,68.0,74,29.86,10.0,SSW,9.2,-,N/A,,Clear,200,2013-05-22 02:56:00
11:56 PM,75.9,68.0,76,29.86,10.0,West,4.6,-,N/A,,Clear,260,2013-05-22 03:56:00